STARLINK-31905, 59896

Orbit data source: Space-Track

STARLINK-31905, 59896 is a payload satellite owned by SpaceX/Seattle (US) in LEO that was launched on Tue, 28 May 2024 UTC via an FALCON 9 launch vehicle from the Air Force Eastern Test Range (AFETR). Payload-class satellites include a variety of spacecraft equipped with specific instruments for various scientific and technological missions. These include communications satellites like Starlink; space stations such as the ISS; scientific satellites like the Hubble; Earth observation satellites from companies like Planet Labs, Umbra, and HawkEye 360; GPS; miniature CubeSats for education and research; and military/defense satellites.

Loading next visibility...
Identifier
59896, 2024-100M
Orbit
LEO
Country
Flag of USUS
Related business
Manufacturer
SpaceX/Seattle
Mission
Operational Commercial Communications
Bus & Motor
STARLINK V2M, Unknown motor
Mass
730 kg wet, ~700 kg dry
Launch date (UTC)
2024-05-28 (2 years ago)
Launch vehicle
FALCON 9
Launch site
Air Force Eastern Test Range (AFETR)
Object type
Payload
Rocket body
Debris
Shape & HBR
Box + 2 Pan, 17.7 m
Radar Cross Section
33.884 m², Large (>1 m²)

Expand to show TLE details & history
Last TLE update: 3 days ago

TLE from 3 days ago
0 STARLINK-31905
1 59896U 24100M   26170.67936636  .00011682  00000-0  43341-3 0  9992
2 59896  43.0058 266.0623 0002251 280.2186  79.8412 15.27577160116797
Epoch: 2026-06-19T16:18Z
TLE epoch observation values (Epoch: 2026-06-19T16:18:17.253Z)
Latitude
-0.00001°
Longitude
113.58553°
Altitude
482.562 km
Speed
7.626 km/s
True Right ascension
17h 44m 14s
True Declination
0° 00' 00"
Sunlit
Object was in full shadow at epoch
Visualization orbit readout
Latitude
Unknown
Longitude
Unknown
Altitude
Unknown
Speed
Unknown
Apparent Right ascension
Unknown
Apparent Declination
Unknown
Sunlit
N/A
Visualization observer readout
Local Sidereal Time
21:38:07
Azimuth
Unknown
Elevation
Unknown
Doppler factor
Unknown
Orbital elements
Apogee altitude
486.547 km
Perigee altitude
483.457 km
Semi-major axis
6,863.139 km
Eccentricity
0.00023
Inclination
43.0058°
RAAN
266.0623°
Arg. of periapsis
280.2186°
True anomaly
79.86659°
Mean anomaly
79.8412°
Eccentric anomaly
79.8539°
Mean motion
3.81732 °/min
Orbital period
94.31 mins
BSTAR
0.00043341
Loading maneuver chart data...
Computing Atmospheric mass density...
Loading historical data...
Loading historical data...
Loading historical data...
Loading historical data...
Loading historical data...
Loading historical data...
Loading historical data...

Documentation

Showing up to 5 results
|